GFSWCAN_250_spd_024.txt.gz
Wind_Speed
115 114 112 98 87 74 66 62 58 53 49 44 42 40 38 35 31 27 24 24 25 25 32 33 36 36 40 45 49 52 54 57 62 68 75 81 86 94 107 123 135 138 137 131 125 122 117 106 103 102 95 90 80 78
118 115 107 94 80 71 66 61 55 50 46 43 39 35 32 28 23 20 18 16 17 18 21 23 25 28 29 32 34 36 39 44 50 52 59 63 70 77 86 96 116 131 131 126 127 124 121 111 106 104 101 90 80 78
118 114 100 89 77 68 62 57 51 46 43 39 36 33 28 23 18 14 11 10 10 11 12 13 17 22 24 25 26 28 32 35 38 42 44 52 56 63 74 85 94 108 122 123 122 124 124 112 105 99 99 91 85 85
116 111 97 83 74 67 60 55 49 43 39 36 34 31 27 23 20 15 11 8 5 2 4 7 11 14 18 22 23 24 26 27 29 33 39 46 53 62 66 72 84 90 102 107 108 110 114 99 95 89 87 81 72 68
115 104 92 78 70 63 58 53 46 40 38 37 35 32 29 26 24 19 16 12 8 6 4 5 6 9 13 18 21 23 23 24 26 30 34 40 46 53 63 69 78 88 91 97 95 100 103 86 83 64 62 69 69 70
113 98 85 75 65 59 55 48 42 37 35 35 34 33 30 28 26 23 18 17 16 13 8 7 9 8 10 13 15 18 23 27 30 33 34 37 43 50 59 65 72 82 85 93 103 99 97 80 69 63 54 59 62 60
108 93 78 70 60 55 50 42 38 33 34 33 28 29 27 27 28 26 24 24 23 19 15 11 9 9 13 16 17 19 23 24 27 31 35 39 42 42 45 60 70 78 80 90 107 102 95 70 62 59 51 38 44 54
100 87 74 65 55 49 44 36 32 29 31 29 23 26 25 29 31 32 31 31 30 26 25 23 21 17 18 21 23 25 26 27 29 32 36 37 40 44 46 49 51 64 80 95 94 93 72 57 52 47 54 50 42 52
93 78 68 59 50 44 38 33 28 26 27 23 20 22 25 27 29 32 32 34 33 33 32 30 29 28 26 32 32 35 34 35 37 39 41 40 41 45 48 52 58 67 75 79 72 52 56 56 53 58 49 44 42 57
86 72 64 54 46 39 35 30 25 23 22 17 13 11 15 28 32 31 36 40 39 39 37 37 36 37 35 37 40 41 43 44 45 44 45 42 39 39 41 45 52 65 68 57 49 49 55 66 56 54 53 54 51 60
77 67 59 49 42 34 30 26 21 21 19 11 11 10 14 25 29 23 28 34 36 36 36 36 39 40 41 44 45 45 43 43 47 43 44 43 40 36 32 41 48 58 58 47 47 56 61 79 69 48 56 62 60 58
70 61 54 45 37 33 27 24 19 18 16 11 11 13 20 30 27 21 19 32 34 36 36 36 39 42 45 52 52 50 47 49 57 53 53 52 51 49 43 39 39 37 37 41 49 63 64 69 71 56 57 56 51 52
64 57 49 42 35 30 26 24 20 14 12 7 6 1 19 22 25 26 26 28 32 35 38 38 42 45 51 49 51 52 51 52 53 56 57 55 53 52 52 49 45 46 47 49 57 63 60 64 66 69 64 58 51 51
61 54 47 38 31 29 24 22 18 10 10 10 3 13 19 21 23 21 25 25 25 32 34 37 39 43 48 45 46 48 50 50 47 48 50 50 48 53 51 50 54 53 55 47 56 60 57 58 62 63 60 59 61 54
60 51 43 35 30 27 24 22 18 12 10 13 5 13 19 22 22 17 28 25 26 26 28 30 32 34 36 40 38 38 44 43 46 44 44 42 46 51 46 47 49 51 51 42 40 55 55 53 58 64 64 60 60 64
56 47 40 35 32 31 29 26 20 16 12 9 9 18 21 21 21 20 26 27 25 27 25 22 25 26 29 33 26 31 36 44 47 43 43 46 48 51 53 45 45 44 46 51 49 46 52 53 50 49 53 54 55 53
51 45 39 34 31 31 30 22 17 20 15 11 13 14 24 23 26 19 25 26 22 26 27 21 16 19 22 27 32 30 29 42 47 43 43 46 44 44 44 49 51 51 54 52 54 56 58 53 51 51 53 60 59 61
45 41 38 32 30 29 27 32 30 27 19 14 7 6 21 28 29 24 20 25 25 21 25 27 23 22 18 19 26 32 34 40 48 49 51 45 47 47 45 50 54 57 59 62 61 61 54 58 57 56 61 64 64 64
39 36 33 33 29 27 28 30 33 31 22 15 3 1 7 26 23 27 23 18 24 26 25 25 28 28 30 27 27 26 29 33 37 42 47 48 51 54 52 58 59 58 61 66 69 69 67 64 63 62 60 63 66 69
31 29 28 32 30 28 30 26 27 25 26 25 17 2 12 9 22 21 30 26 22 21 19 30 29 29 30 32 35 35 33 35 37 39 39 46 49 48 52 53 60 64 67 64 66 68 65 67 73 75 70 69 70 73
24 20 22 24 27 29 31 30 26 23 21 20 18 15 7 18 23 32 27 34 31 29 31 30 27 29 35 35 36 36 38 48 45 47 46 46 50 54 57 62 67 67 69 74 76 80 80 84 82 80 84 85 85 86
21 19 22 23 28 34 33 27 24 23 21 17 11 8 6 4 5 6 12 26 39 43 44 42 43 44 40 36 38 42 46 44 39 46 52 53 57 58 59 59 62 65 66 71 77 77 78 81 88 94 96 92 93 93
20 21 20 23 30 33 36 34 29 23 17 14 14 13 12 7 2 2 6 8 11 15 21 30 34 39 44 51 54 51 46 43 43 44 46 52 55 59 62 63 66 68 73 73 73 73 74 74 73 73 75 77 78 81
15 16 21 21 25 29 34 35 34 31 28 26 24 25 28 29 19 16 15 15 17 18 21 25 27 28 30 36 39 36 34 37 39 38 38 40 47 53 55 59 62 62 63 66 68 70 72 76 76 78 80 82 83 83
16 23 28 29 30 34 33 28 25 25 26 28 28 27 26 27 28 30 29 26 25 23 24 23 24 28 29 34 42 43 38 34 36 42 44 44 43 45 48 49 50 50 50 53 56 60 66 69 69 72 73 76 81 83
30 32 31 30 28 28 25 25 25 24 22 21 25 28 31 32 31 29 28 27 27 26 25 23 21 20 23 31 38 42 41 40 40 42 42 41 40 40 43 48 52 52 50 49 49 50 54 59 61 62 62 64 67 71
30 28 28 29 29 27 25 24 24 24 27 30 31 31 33 34 34 31 28 29 29 26 23 21 22 25 29 31 33 30 29 31 31 34 37 36 35 37 37 40 42 44 46 46 45 44 46 47 50 53 55 57 58 60
29 31 31 30 29 29 31 32 32 33 32 32 33 34 36 38 39 40 37 33 30 26 24 24 24 27 31 32 30 27 24 24 23 25 29 31 32 33 33 35 36 37 37 37 39 39 39 41 43 45 49 51 53 55
35 35 35 34 33 31 31 32 34 36 36 35 34 34 37 39 41 44 41 38 36 35 33 32 30 28 29 33 30 28 27 27 26 25 26 27 28 29 30 31 32 34 35 33 33 34 35 36 37 39 42 44 46 48
33 36 36 35 33 33 33 35 36 36 35 37 38 38 41 42 41 42 43 41 40 37 34 32 31 30 27 28 31 28 27 27 27 27 27 27 27 28 28 28 28 29 30 31 31 31 32 33 34 35 37 39 40 41
33 34 34 34 35 37 38 37 36 37 39 40 39 38 38 40 42 42 44 45 42 40 39 37 35 33 30 27 26 27 27 27 27 27 29 29 29 29 30 30 30 30 31 31 31 31 32 32 32 32 33 34 35 35
28 30 33 35 37 38 37 39 39 38 37 35 35 37 37 42 47 47 44 43 42 39 36 36 34 32 30 28 27 26 26 26 28 28 28 31 32 32 32 31 32 33 33 32 32 32 31 31 30 30 31 31 32 33
23 24 28 33 38 40 40 40 40 38 37 38 42 42 40 41 45 48 48 46 41 38 36 35 34 32 30 29 28 27 27 27 27 29 29 29 30 32 34 34 32 31 30 30 30 30 29 29 28 28 28 29 30 30

GFSWCAN_250_spd_030.txt.gz
Wind_Speed
102 107 115 119 107 92 82 73 63 59 56 51 50 50 47 41 34 31 27 24 19 14 12 14 19 26 34 41 46 51 57 65 74 87 95 102 110 108 104 107 107 106 108 105 105 98 89 86 88 85 73 74 76 71
103 109 116 117 104 91 77 67 60 55 50 50 48 45 46 40 38 33 28 24 18 14 11 8 9 12 18 28 35 38 42 49 57 66 75 88 96 101 110 110 110 106 101 100 101 91 89 93 94 89 82 79 82 80
104 110 118 112 98 89 74 64 57 52 46 47 45 42 46 39 38 37 31 24 20 15 11 8 5 5 9 13 18 25 32 37 43 51 61 70 79 90 98 111 111 106 109 106 104 93 90 91 94 94 88 88 84 85
104 111 119 108 93 85 71 60 53 47 44 42 42 41 41 39 38 36 33 28 23 19 16 14 9 3 3 8 13 18 22 27 34 40 45 52 62 70 80 87 93 104 116 110 107 99 95 90 91 95 94 95 91 90
104 113 116 104 87 80 66 56 49 43 39 38 41 40 38 35 36 38 34 30 24 20 18 17 14 9 8 6 8 10 13 16 22 27 32 37 45 52 60 67 76 86 95 103 109 106 101 99 96 97 94 88 86 88
106 112 108 101 84 78 63 55 47 40 36 37 40 33 36 33 34 37 33 31 27 23 22 21 18 15 14 13 11 11 12 13 16 19 24 28 34 42 48 57 63 67 73 77 90 103 108 105 99 101 98 95 84 81
106 111 101 95 82 74 61 52 45 37 33 39 36 30 33 33 38 35 35 34 31 29 27 25 22 19 17 15 13 12 14 16 16 18 20 23 25 30 37 42 47 53 55 56 65 76 90 105 111 103 99 101 93 75
106 106 98 90 79 71 60 50 40 34 25 35 37 34 30 29 34 31 32 34 35 32 31 28 26 24 20 20 20 17 16 13 12 15 17 20 21 24 28 31 35 36 35 40 48 57 65 80 98 109 110 102 89 89
105 98 97 83 74 67 56 45 35 29 20 25 32 34 26 34 30 29 31 32 35 36 38 37 34 33 28 26 27 26 25 22 17 16 18 20 21 18 15 17 20 22 24 32 39 44 50 63 77 88 96 101 95 93
97 91 94 78 70 64 53 40 28 22 17 18 24 33 22 35 27 28 30 29 37 39 44 45 44 41 40 37 38 37 38 34 26 31 28 24 17 14 13 10 13 25 25 34 34 39 44 49 59 74 75 64 66 68
93 90 87 72 66 58 48 35 25 15 14 17 22 24 25 33 24 17 25 29 38 41 43 47 48 46 45 43 42 40 41 38 39 34 27 31 31 24 26 29 33 32 25 54 41 28 32 44 48 51 52 66 65 68
86 91 77 67 63 56 43 30 22 12 15 13 19 20 31 20 18 18 24 33 39 43 45 44 47 46 43 43 41 41 45 44 40 46 47 47 41 30 20 26 36 45 39 47 48 48 62 61 49 52 55 69 67 69
85 84 70 62 56 52 37 28 16 7 12 12 16 28 25 12 15 17 23 29 34 36 38 39 42 43 42 41 38 36 36 41 39 41 42 45 42 37 27 15 15 56 49 50 42 49 75 71 71 69 72 73 63 63
85 72 64 61 53 48 33 23 14 11 12 11 15 18 15 9 4 11 19 27 27 29 30 31 30 30 37 34 33 31 29 29 34 31 32 30 26 20 9 10 14 35 60 65 49 43 77 80 77 75 66 75 58 68
76 62 58 57 49 41 32 19 14 10 9 11 15 11 14 8 11 4 17 23 24 22 21 20 20 23 27 25 23 27 29 25 25 25 28 29 25 22 21 27 11 14 39 54 62 56 71 83 78 84 81 79 75 77
62 53 53 50 43 37 32 20 13 7 6 8 8 4 12 13 13 4 6 11 16 19 21 18 17 16 18 18 20 26 23 21 26 26 30 28 28 31 27 19 26 20 18 49 65 62 80 82 73 77 82 84 81 81
50 47 45 43 37 32 32 22 14 9 2 5 6 6 4 9 10 15 11 7 2 11 8 15 15 25 25 28 25 21 26 23 24 27 29 29 26 30 30 29 25 24 18 23 53 55 80 78 81 79 71 67 69 78
41 38 34 36 34 31 27 25 22 12 8 2 10 11 13 11 7 8 12 13 13 16 14 13 20 20 23 31 29 30 27 33 32 28 32 34 32 31 37 38 36 35 33 31 33 35 63 64 70 59 46 45 42 42
31 28 30 33 32 28 24 23 22 21 21 21 15 10 18 21 21 20 20 20 23 23 24 21 19 18 21 27 31 38 35 34 39 40 43 41 37 30 36 40 41 41 38 41 35 31 35 43 52 47 48 52 53 53
27 27 30 28 27 23 19 19 20 21 20 19 18 15 14 15 15 19 26 30 33 30 28 25 23 24 18 19 21 29 43 40 47 49 52 51 53 50 46 48 47 51 49 49 53 53 53 53 53 56 62 60 61 60
27 28 27 25 22 16 17 18 19 19 19 19 19 18 19 18 18 18 21 21 25 25 27 26 25 26 28 29 29 28 28 35 44 57 58 54 57 60 57 58 57 57 59 61 61 62 63 63 66 66 64 62 62 64
25 25 25 24 22 20 19 18 18 17 17 17 16 17 19 18 16 17 21 25 31 33 29 33 32 28 26 24 23 27 34 41 44 47 52 55 61 69 66 68 68 67 70 71 72 74 72 71 74 77 77 77 78 76
24 25 24 25 25 26 27 27 25 22 21 21 21 22 23 23 23 23 25 27 28 27 25 27 26 25 28 31 32 32 32 31 30 34 41 48 52 58 68 79 82 78 76 77 81 83 84 83 85 86 87 88 89 90
27 27 27 24 24 26 25 25 26 26 25 24 24 24 24 26 28 28 29 31 28 25 24 25 26 26 25 25 28 29 29 30 31 32 32 34 39 44 49 54 61 67 73 80 84 85 87 87 89 92 93 93 94 94
31 30 29 30 30 31 31 30 29 28 28 28 28 28 27 28 30 33 34 35 35 33 27 22 23 25 26 25 26 24 24 25 28 31 32 33 35 34 35 39 44 49 54 58 61 64 67 71 75 78 80 83 84 86
31 31 31 32 34 35 36 34 32 30 30 30 32 33 33 31 32 35 37 38 37 36 35 31 27 23 22 23 24 25 25 26 26 26 26 27 27 28 30 31 33 36 40 44 49 53 56 59 60 62 63 64 65 66
30 28 29 32 34 35 36 36 35 34 34 33 32 33 35 36 34 34 36 40 43 41 37 35 35 32 27 24 23 23 25 26 25 26 27 27 27 25 26 27 28 29 31 34 36 39 42 45 47 49 52 54 56 57
30 28 27 31 34 33 34 36 39 41 41 39 37 36 34 33 35 37 41 44 45 44 40 37 35 34 31 29 29 29 28 26 26 26 25 24 24 25 26 27 26 27 27 29 31 33 35 36 39 41 44 46 47 49
29 26 26 29 32 33 34 35 37 39 41 42 42 41 41 38 40 44 45 47 48 48 46 45 43 39 36 33 31 30 28 27 26 26 27 29 30 30 30 29 29 28 28 28 28 29 30 32 33 35 37 38 40 42
21 21 24 29 31 31 34 36 37 40 42 44 45 47 47 47 45 47 48 47 47 46 46 47 46 43 38 35 32 30 29 28 28 28 28 28 29 29 31 32 33 32 32 32 32 33 33 34 34 34 33 34 35 36
22 24 27 30 32 35 38 40 40 41 43 43 45 46 47 49 50 49 49 47 47 46 46 47 47 45 41 37 34 31 30 29 29 30 31 31 30 29 29 29 28 28 29 30 31 31 31 32 32 32 31 31 31 32
23 25 29 33 34 37 38 40 41 42 42 42 43 44 45 46 48 51 50 49 48 49 48 46 46 45 43 41 38 36 36 35 34 32 31 31 31 31 31 30 30 30 30 29 28 28 29 28 28 27 27 26 26 26
23 26 30 31 31 33 36 37 38 38 38 38 40 41 44 45 46 49 50 50 50 50 49 48 47 46 44 43 41 39 39 38 36 35 33 31 30 30 30 30 29 29 29 28 27 26 25 24 24 23 23 23 24 24

GFSWCAN_250_spd_033.txt.gz
Wind_Speed
88 95 102 104 110 113 104 85 71 60 55 49 47 50 50 48 45 42 36 31 27 22 16 10 6 9 17 24 29 35 44 54 60 71 79 89 102 104 100 100 97 94 95 98 103 99 92 89 92 87 82 80 77 74
88 97 102 103 111 110 100 82 65 56 50 45 45 47 47 47 48 43 41 33 27 22 17 12 6 3 5 11 20 27 34 41 49 56 67 77 88 97 106 102 102 94 89 94 96 94 95 96 91 93 93 88 84 80
89 98 103 105 109 109 95 78 61 51 44 40 42 42 41 45 46 43 42 35 28 24 20 17 13 8 4 3 9 19 25 30 37 45 52 62 73 85 97 105 102 97 99 88 88 88 94 94 95 93 91 89 87 83
91 99 102 105 108 105 90 79 58 47 38 37 37 38 41 40 42 43 41 35 29 24 22 22 19 15 12 10 10 14 19 23 26 33 42 50 61 70 81 94 103 106 100 97 87 84 91 94 96 96 93 88 86 84
93 98 98 105 106 100 83 72 56 44 32 34 34 33 35 36 38 43 40 35 30 26 28 25 21 20 19 16 14 14 16 18 22 26 33 42 51 59 70 81 91 100 109 104 94 97 89 92 100 97 96 94 90 86
94 96 97 102 103 96 77 68 53 39 23 31 30 31 32 32 36 39 41 37 29 31 31 29 26 24 22 21 18 15 14 15 17 20 25 30 38 48 58 67 77 89 101 109 109 104 94 93 92 95 95 95 93 89
93 93 98 99 97 88 75 62 49 36 19 25 25 26 27 30 31 34 35 35 36 34 32 29 27 26 26 23 21 19 17 16 14 15 18 23 29 37 44 52 59 67 78 88 97 102 95 93 92 91 95 97 94 93
92 92 97 98 92 78 69 57 43 31 15 20 21 24 26 32 33 33 31 30 31 34 33 30 29 28 28 27 27 22 22 22 20 20 16 15 18 21 28 33 38 39 41 50 63 80 99 99 93 92 91 92 92 92
90 93 96 93 89 71 60 52 35 25 13 21 22 27 19 35 41 42 41 36 38 34 32 31 30 31 29 28 27 27 34 40 33 31 25 22 13 9 7 10 15 18 27 33 41 55 74 96 104 95 90 95 96 95
88 93 94 89 79 66 51 43 30 16 12 21 23 25 28 31 34 37 34 39 39 37 35 33 32 32 33 31 33 32 35 37 41 35 34 33 33 30 27 20 16 18 23 27 34 41 52 69 89 101 110 95 95 97
89 92 90 88 69 57 44 34 25 10 17 20 21 23 33 30 33 28 27 31 33 33 39 41 35 27 24 32 32 30 28 35 38 43 47 41 39 33 30 35 34 31 29 35 44 46 48 43 60 81 100 107 106 101
89 88 87 74 62 49 41 29 17 9 15 15 17 26 28 22 20 21 20 21 27 27 34 36 38 38 34 27 29 31 33 38 44 39 41 40 40 43 46 38 41 47 50 50 51 54 51 50 41 47 74 90 108 109
85 83 81 62 53 44 38 26 12 11 18 13 27 23 20 11 15 8 17 18 22 25 29 33 33 35 36 32 25 28 35 33 33 32 41 42 39 46 42 46 41 47 47 48 58 48 41 36 30 22 38 70 80 92
80 82 66 52 45 43 35 22 9 8 15 17 26 17 12 6 7 8 5 8 13 20 23 24 25 28 27 26 25 19 20 23 21 16 26 32 31 43 37 43 42 42 38 40 39 36 41 29 22 42 55 47 54 70
77 70 57 46 41 40 31 21 8 6 7 7 18 10 6 4 8 8 11 8 8 9 10 12 12 19 24 23 24 21 15 17 18 19 17 13 22 48 44 44 43 33 35 29 36 37 37 41 39 37 40 40 48 56
68 60 46 38 39 37 30 21 10 4 4 8 8 6 9 8 7 5 11 12 12 12 12 11 8 11 19 21 19 20 21 17 15 19 18 24 27 34 41 37 49 39 40 41 37 33 43 47 52 54 49 44 44 58
55 48 40 35 35 32 24 21 17 13 7 5 9 8 7 12 11 8 6 6 9 17 17 13 17 20 15 24 23 21 21 21 22 21 23 22 15 21 23 23 26 46 37 48 44 43 51 59 61 59 58 64 61 64
44 38 34 34 33 30 24 18 15 11 12 9 9 11 14 15 17 16 17 18 17 14 14 17 16 14 25 27 29 28 30 26 27 27 31 33 32 31 27 26 24 22 32 47 46 48 51 60 71 71 66 70 68 70
32 30 30 29 28 25 24 22 19 18 16 14 13 11 12 14 14 15 17 21 22 25 25 26 24 21 21 26 31 37 39 36 40 39 37 36 36 36 34 35 34 33 33 33 39 51 57 57 72 75 77 78 76 72
28 29 28 27 26 22 24 24 24 22 20 19 20 21 22 23 21 16 13 15 18 23 24 25 25 25 27 28 29 34 40 47 44 45 48 49 47 46 44 42 48 48 49 47 47 44 41 43 49 69 79 87 81 88
28 27 24 24 24 24 23 22 22 22 23 23 22 20 20 21 19 18 17 20 23 26 29 29 25 22 25 26 29 37 41 41 47 55 55 58 58 59 57 60 59 59 58 59 57 59 57 53 54 59 64 71 83 103
27 26 25 23 25 26 25 25 26 25 24 24 23 20 20 21 22 23 24 25 26 26 26 26 26 26 27 27 25 28 31 37 45 48 49 53 61 65 69 66 65 69 70 69 69 69 69 64 68 66 62 60 63 72
28 26 26 27 29 28 27 26 25 24 23 23 23 24 23 23 23 24 27 30 33 34 31 29 28 26 26 27 29 28 25 25 32 37 42 49 55 58 63 66 74 75 74 74 75 76 76 74 73 75 75 73 73 72
26 26 28 30 30 30 30 29 28 28 29 29 28 27 26 26 26 27 30 33 36 35 31 28 26 26 27 27 26 26 27 27 26 26 28 32 39 45 47 54 58 63 72 78 79 81 82 81 81 80 82 83 83 82
29 25 26 29 28 27 28 30 32 32 32 32 33 34 33 30 29 32 34 35 35 32 29 28 27 28 27 24 24 25 24 24 26 28 29 30 32 33 37 41 45 49 53 57 59 61 63 69 75 82 87 87 86 86
31 26 23 25 27 27 28 30 32 32 32 32 34 35 35 34 33 35 36 35 36 35 33 32 33 31 30 26 22 21 23 24 25 26 27 28 31 33 34 35 36 39 41 42 45 49 53 57 59 61 62 66 71 76
30 26 21 22 26 27 29 31 33 34 34 34 33 33 34 36 35 35 37 36 37 38 36 35 36 37 35 33 30 26 24 23 23 24 26 29 29 29 30 31 32 33 35 36 38 40 43 46 49 51 54 57 59 61
27 22 21 23 26 27 30 34 35 35 36 35 34 35 34 34 36 38 41 42 42 42 43 44 42 41 40 38 35 32 31 29 27 27 26 25 26 27 29 31 32 32 33 34 35 37 38 39 40 42 43 45 48 50
21 20 20 24 27 29 32 33 33 33 33 32 33 34 35 38 39 40 41 43 43 44 45 46 45 44 42 41 39 37 37 34 31 28 27 28 30 31 29 27 27 27 28 29 32 34 35 36 37 38 39 40 41 43
20 21 24 27 32 33 33 35 35 35 34 34 35 38 40 42 45 45 46 46 46 47 48 47 46 47 45 43 40 38 37 36 35 34 31 29 28 28 28 29 30 30 30 29 29 29 30 30 32 33 35 37 39 39
22 26 30 31 29 31 34 38 39 39 38 38 39 40 42 45 47 48 49 48 48 49 48 47 49 49 46 42 40 37 35 34 33 32 31 31 29 27 26 26 25 26 26 27 28 29 30 30 31 31 32 33 33 34
28 29 28 27 32 36 39 41 40 40 39 38 37 39 42 44 47 50 50 50 51 50 49 51 51 48 44 41 39 36 34 33 31 31 30 29 28 27 25 24 23 24 23 23 23 24 24 25 25 26 26 26 27 27
26 25 25 28 32 37 41 42 41 41 39 38 39 41 42 43 47 49 50 51 51 50 52 53 49 46 43 40 37 35 34 32 32 31 30 29 28 27 27 26 24 22 21 21 21 20 21 21 21 21 21 22 22 22

GFSWCAN_250_spd_036.txt.gz
Wind_Speed
82 85 87 94 94 101 103 105 100 82 72 58 53 43 41 41 44 36 34 31 29 26 23 18 13 8 3 8 17 23 31 38 47 54 70 87 97 100 97 95 91 90 93 97 101 97 95 92 89 85 87 81 80 78
83 88 84 94 97 99 103 102 97 78 64 53 47 39 39 39 39 34 33 30 29 27 24 20 15 11 7 2 10 16 22 29 36 43 53 71 88 95 100 98 94 89 89 93 97 97 94 96 94 89 85 82 81 81
84 87 84 91 98 99 102 100 90 74 61 50 43 33 36 37 37 31 30 27 29 29 25 24 20 15 13 8 5 11 16 22 29 37 44 55 71 88 99 101 94 92 91 88 91 93 96 94 92 95 93 89 85 83
86 89 90 93 98 99 101 98 81 69 54 45 39 31 32 34 37 31 31 31 30 30 29 28 26 22 20 16 12 12 14 18 23 30 38 47 60 73 87 99 102 100 95 91 88 91 98 100 98 99 99 97 92 88
87 89 88 93 98 98 98 92 70 61 47 39 31 27 25 28 29 31 28 30 29 28 27 28 29 29 27 23 20 17 14 15 19 24 31 39 48 61 76 90 101 103 102 95 88 92 93 97 100 100 100 98 95 91
89 90 86 95 95 97 95 80 67 51 39 31 21 23 21 23 25 26 27 29 28 27 29 29 30 30 30 27 24 22 19 15 15 18 23 31 41 52 64 80 94 103 105 101 97 96 91 92 96 101 99 100 100 99
89 89 86 92 94 95 86 67 56 42 29 20 17 19 23 22 26 29 29 29 28 26 27 29 31 32 33 31 28 25 20 17 14 13 15 20 27 36 44 55 73 91 99 99 103 94 86 89 89 92 97 100 101 97
88 86 88 90 92 89 74 62 43 29 18 13 13 20 28 30 32 33 29 28 21 18 31 33 34 35 36 34 33 30 25 22 18 16 11 6 12 21 28 35 45 58 77 91 95 90 91 87 86 82 88 96 96 98
83 85 87 88 89 83 65 51 34 21 14 11 14 20 22 26 30 28 27 25 22 18 23 26 32 32 40 39 39 36 36 29 29 26 22 20 9 5 11 16 23 35 46 65 82 93 95 93 85 82 83 86 92 96
81 83 85 86 85 72 60 43 28 14 10 13 16 14 21 22 26 31 32 35 32 28 24 21 21 28 36 40 40 39 30 28 35 31 28 24 23 23 20 18 15 18 27 37 52 70 81 93 96 89 83 82 81 85
80 80 82 81 78 62 52 36 21 10 8 15 15 15 14 18 22 25 16 19 25 24 20 25 24 24 25 31 35 32 27 23 25 30 37 35 40 37 40 40 36 27 24 27 31 42 57 72 84 90 85 83 85 82
76 77 78 78 66 53 43 27 11 6 6 8 11 13 9 12 11 9 9 6 14 13 21 24 18 17 17 23 26 25 21 18 21 30 42 47 43 43 44 47 45 41 36 33 35 39 45 56 71 87 92 89 88 86
73 74 74 70 57 44 36 20 7 1 0 7 8 13 11 5 4 1 5 3 6 3 6 16 24 26 27 22 16 20 20 16 17 31 40 40 43 48 40 50 51 49 47 47 41 43 42 43 59 78 91 95 92 85
69 69 69 60 48 40 30 22 9 3 1 7 9 4 5 4 5 10 10 11 12 11 6 3 14 17 24 22 23 20 18 16 14 28 36 42 42 40 40 39 47 39 41 41 45 44 43 47 50 61 78 96 88 99
65 65 54 47 39 33 28 24 17 12 7 3 9 3 2 7 9 11 14 12 16 18 11 7 11 12 16 20 20 21 17 12 11 26 27 42 38 36 33 38 41 31 22 23 33 37 37 39 43 49 66 73 86 98
60 49 43 39 35 27 24 22 20 16 14 12 7 5 5 7 7 7 10 16 18 22 20 20 17 14 17 19 17 18 23 17 16 20 17 33 37 38 34 27 34 35 32 27 32 31 35 37 34 37 40 47 64 72
45 42 40 35 31 26 23 21 20 20 16 14 13 15 16 18 18 14 13 16 16 17 20 24 24 23 23 25 24 21 21 25 22 23 22 31 38 42 41 33 35 39 36 35 44 44 43 43 41 36 39 45 47 53
40 37 34 32 30 28 26 22 20 19 17 15 14 15 17 19 18 15 17 20 23 25 26 26 26 29 28 29 36 32 31 31 29 29 32 31 43 48 45 44 46 51 50 48 50 54 50 51 50 52 49 50 52 50
35 33 31 28 27 28 27 26 26 25 24 21 19 20 19 18 17 17 17 16 17 19 22 23 23 24 29 34 34 40 43 38 39 36 40 42 42 48 50 55 55 50 50 52 53 60 58 56 60 61 59 57 55 58
32 30 29 28 28 28 27 26 26 24 23 22 20 18 17 18 19 20 20 21 22 24 27 28 27 24 22 24 30 41 38 47 47 43 47 44 47 48 49 53 56 54 54 57 55 57 58 59 64 63 67 67 67 68
28 27 28 29 29 29 29 28 26 25 25 26 26 25 23 22 21 21 22 23 24 25 27 27 26 26 24 21 20 26 32 38 41 44 51 52 54 54 57 57 57 60 64 63 57 55 56 58 60 64 68 66 71 80
28 27 27 28 28 28 29 31 30 29 29 28 27 28 27 26 23 21 21 23 26 28 29 28 27 27 26 25 24 20 21 27 36 42 46 48 55 61 62 60 61 62 63 62 64 64 63 64 65 64 65 68 72 72
31 29 26 27 28 29 30 32 31 32 32 31 30 29 28 26 23 24 26 27 27 28 29 28 25 26 27 27 26 24 22 22 24 29 37 41 44 48 57 66 69 67 69 68 67 68 68 69 69 67 68 68 67 66
31 31 28 25 25 28 29 31 33 32 33 34 33 31 29 28 29 29 30 32 34 33 32 31 29 26 26 26 25 25 25 25 24 24 26 29 36 43 48 51 55 60 66 69 70 70 70 73 74 74 74 74 73 74
29 30 28 24 24 28 29 32 35 36 35 34 34 33 34 33 33 34 35 36 38 36 34 33 33 31 29 28 25 22 21 24 26 27 27 27 29 32 38 44 49 53 54 55 57 60 63 66 67 68 72 74 74 76
30 29 24 22 24 28 31 34 37 37 36 34 32 33 35 35 37 39 40 39 38 35 34 34 33 31 32 32 30 26 23 22 23 25 28 30 30 30 33 35 38 42 45 48 50 52 52 53 54 56 57 58 61 64
27 23 21 22 26 30 34 36 35 36 35 33 32 33 34 35 37 40 41 41 40 38 39 38 37 37 38 37 34 31 28 26 25 24 24 25 27 29 31 31 33 35 38 40 43 45 47 48 48 49 50 49 49 49
20 21 23 26 29 32 31 31 34 35 34 33 32 31 32 34 37 39 42 43 43 43 42 40 42 43 42 40 37 34 32 31 30 28 27 25 24 24 26 28 30 32 35 36 38 40 41 43 45 45 46 47 47 47
21 24 27 28 26 28 31 32 33 33 33 32 30 30 31 34 36 40 43 43 42 42 42 44 45 45 42 41 39 36 35 34 32 29 27 27 27 26 25 24 24 25 28 31 34 36 38 39 39 39 40 40 40 41
25 25 24 23 26 29 33 34 34 32 31 33 35 37 38 38 40 44 47 47 47 46 47 48 47 44 41 38 37 38 36 34 33 31 30 28 27 26 26 25 25 25 24 24 25 26 28 31 33 35 37 38 38 39
22 18 18 21 27 30 35 39 39 37 34 35 37 39 40 40 44 47 48 47 48 48 49 48 46 43 41 40 39 36 35 34 32 30 29 27 26 24 23 23 23 23 23 24 25 25 26 27 27 28 29 30 33 34
17 17 20 25 30 33 35 39 41 42 41 38 37 38 40 41 45 48 48 48 48 49 49 47 44 42 41 40 38 37 35 33 31 29 28 27 26 25 23 21 20 19 20 20 21 20 21 21 22 22 23 24 25 26
16 21 22 27 31 34 37 38 42 46 48 46 42 40 41 41 44 47 49 50 49 49 48 46 43 41 40 39 36 35 33 33 32 31 29 28 27 26 25 23 21 19 18 17 17 17 18 18 18 18 19 19 19 20